FW3734 Weather Reports


time (UTC)temp
F
wind
direction
speed
knots
gust
knots
rain 1hr
in
rain 24hr
in
rain mn
in
humidity
%
barometer
mb
20260508043101 54 271 0.0 0.0 0.00 0.00 0.00 64 1014.2
20260508041550 54 271 0.0 0.0 0.00 0.00 0.00 64 1014.2
20260508040050 54 271 0.0 0.0 0.00 0.00 0.00 64 1014.2
20260508034550 54 271 0.0 0.0 0.00 0.00 0.00 64 1014.1
20260508033050 55 271 0.0 0.9 0.00 0.00 0.00 65 1014.2
20260508030056 55 271 0.0 0.0 0.00 0.00 0.00 62 1014.3
20260508024555 56 271 0.0 0.0 0.00 0.00 0.00 60 1014.3
20260508023047 56 271 0.0 0.0 0.00 0.00 0.00 58 1014.3
20260508021546 57 271 0.0 0.0 0.00 0.00 0.00 58 1014.2
20260508020045 58 271 0.0 0.0 0.00 0.00 0.00 55 1014.0
20260508014545 59 271 0.0 0.0 0.00 0.00 0.00 53 1013.7
20260508013045 60 271 0.0 0.0 0.00 0.00 0.00 52 1013.7
20260508011545 61 271 0.0 0.0 0.00 0.00 0.00 49 1013.6
20260508010044 62 271 0.0 0.0 0.00 0.00 0.00 46 1013.4
20260508004544 64 271 0.0 0.0 0.00 0.00 0.00 44 1013.2
20260508003043 65 262 0.0 0.0 0.00 0.00 0.00 42 1013.1
20260508001546 65 234 0.0 0.9 0.00 0.00 0.00 41 1013.1
20260508000041 66 229 0.0 0.9 0.00 0.00 0.00 40 1013.0
20260507234543 66 251 0.0 3.5 0.00 0.00 0.00 39 1013.1
20260507233040 66 197 0.0 2.6 0.00 0.00 0.00 39 1013.2
20260507231541 67 235 0.0 5.2 0.00 0.00 0.00 39 1013.3
20260507230037 67 200 0.0 7.8 0.00 0.00 0.00 38 1013.4
20260507224536 67 161 0.0 0.9 0.00 0.00 0.00 40 1013.5
20260507223035 67 218 0.0 3.5 0.00 0.00 0.00 39 1013.7
20260507221534 67 209 0.0 0.9 0.00 0.00 0.00 39 1013.7
20260507220032 67 163 0.0 4.3 0.00 0.00 0.00 38 1013.9
20260507214530 67 183 0.0 6.1 0.00 0.00 0.00 39 1013.7
20260507213029 67 207 0.0 6.1 0.00 0.00 0.00 39 1013.9
20260507211527 66 178 0.0 5.2 0.00 0.00 0.00 39 1014.1
20260507210023 66 225 0.0 8.7 0.00 0.00 0.00 39 1014.3
20260507204521 66 158 0.0 4.3 0.00 0.00 0.00 39 1014.5
20260507203019 65 234 0.0 3.5 0.00 0.00 0.00 39 1014.8
20260507201517 66 240 0.0 5.2 0.00 0.00 0.00 39 1015.0
20260507200015 66 263 0.0 0.9 0.00 0.00 0.00 39 1015.0
20260507194511 65 186 0.0 4.3 0.00 0.00 0.00 38 1015.0
20260507193009 65 245 0.0 4.3 0.00 0.00 0.00 39 1015.2
20260507191507 65 281 0.0 4.3 0.00 0.00 0.00 40 1015.5
20260507190006 64 346 0.0 0.9 0.00 0.00 0.00 39 1015.6
20260507184502 64 148 0.0 6.1 0.00 0.00 0.00 38 1015.8
20260507183001 65 291 0.0 3.5 0.00 0.00 0.00 41 1015.8
20260507181558 64 355 0.9 8.7 0.00 0.00 0.00 40 1016.1
20260507180054 64 320 0.9 9.6 0.00 0.00 0.00 39 1016.2
20260507174551 63 205 0.0 3.5 0.00 0.00 0.00 43 1016.4
20260507173048 63 213 0.0 2.6 0.00 0.00 0.00 41 1016.6
20260507171550 62 275 0.0 8.7 0.00 0.00 0.00 39 1016.9
20260507170042 62 294 0.9 8.7 0.00 0.00 0.00 38 1017.2
20260507164555 62 355 0.0 3.5 0.00 0.00 0.00 42 1017.4
20260507163038 61 80 0.0 7.0 0.00 0.00 0.00 43 1017.5
20260507161539 60 11 0.0 6.1 0.00 0.00 0.00 44 1017.7
20260507160034 60 234 0.0 0.9 0.00 0.00 0.00 44 1017.8
20260507154527 59 292 0.9 9.6 0.00 0.00 0.00 40 1018.0
20260507153024 59 206 0.0 2.6 0.00 0.00 0.00 45 1018.0
20260507151522 59 265 0.0 3.5 0.00 0.00 0.00 48 1018.2
20260507150020 58 212 0.0 2.6 0.00 0.00 0.00 53 1018.3
20260507144514 56 207 0.0 0.9 0.00 0.00 0.00 60 1018.5
20260507143022 55 200 0.0 0.0 0.00 0.00 0.00 61 1018.6
20260507141507 55 236 0.0 2.6 0.00 0.00 0.00 62 1018.7
20260507140003 53 243 0.0 0.9 0.00 0.00 0.00 67 1018.7
20260507134610 51 215 0.0 0.0 0.00 0.00 0.00 69 1018.7
20260507133059 50 217 0.0 2.6 0.00 0.00 0.00 74 1018.6
20260507131602 48 231 0.0 0.0 0.00 0.00 0.00 81 1018.5
20260507130047 46 225 0.0 0.0 0.00 0.00 0.00 87 1018.7
20260507124544 45 225 0.0 0.0 0.00 0.00 0.00 90 1018.5
20260507123055 43 225 0.0 0.0 0.00 0.00 0.00 91 1018.4
20260507121544 42 225 0.0 0.9 0.00 0.00 0.00 91 1018.4
20260507120040 42 10 0.0 0.0 0.00 0.00 0.00 91 1018.2
20260507114539 41 10 0.0 0.0 0.00 0.00 0.00 91 1018.2
20260507113039 41 10 0.0 0.0 0.00 0.00 0.00 91 1018.0
20260507111539 41 10 0.0 0.0 0.00 0.00 0.00 91 1018.0
20260507110038 41 10 0.0 0.0 0.00 0.00 0.00 91 1017.8
20260507104538 41 10 0.0 0.0 0.00 0.00 0.00 90 1017.6
20260507103034 42 10 0.0 0.0 0.00 0.00 0.00 90 1017.6
20260507101534 42 10 0.0 0.0 0.00 0.00 0.00 89 1017.6
20260507100042 42 10 0.0 0.0 0.00 0.00 0.00 89 1017.6
20260507094533 42 10 0.0 0.0 0.00 0.00 0.00 89 1017.5
20260507093031 42 10 0.0 0.0 0.00 0.00 0.00 89 1017.5
20260507091535 42 10 0.0 0.0 0.00 0.00 0.00 89 1017.6
20260507090029 41 10 0.0 0.0 0.00 0.00 0.00 89 1017.6
20260507084528 42 10 0.0 0.0 0.00 0.00 0.00 88 1017.8
20260507083026 42 10 0.0 0.0 0.00 0.00 0.00 87 1017.8
20260507081524 42 10 0.0 0.0 0.00 0.00 0.00 86 1018.0
20260507080022 42 10 0.0 0.0 0.00 0.00 0.00 85 1018.1
20260507074520 43 10 0.0 0.0 0.00 0.01 0.00 85 1017.9
20260507073018 43 10 0.0 0.0 0.00 0.01 0.00 84 1017.9
20260507071523 43 10 0.0 0.0 0.00 0.01 0.00 83 1017.9
20260507070014 44 10 0.0 0.0 0.00 0.01 0.00 83 1017.9
20260507064511 44 10 0.0 0.0 0.00 0.05 0.00 82 1018.1
20260507063009 44 10 0.0 0.0 0.00 0.05 0.00 80 1017.9
20260507061508 44 10 0.0 0.0 0.00 0.05 0.00 79 1018.1
20260507060005 45 10 0.0 0.0 0.00 0.05 0.00 78 1018.1
20260507054504 45 10 0.0 0.0 0.00 0.07 0.00 78 1018.0
20260507053110 46 10 0.0 0.0 0.00 0.07 0.00 76 1017.9
20260507051607 46 10 0.0 0.0 0.00 0.07 0.00 75 1018.0
20260507050054 47 10 0.0 0.0 0.00 0.07 0.00 74 1017.9
20260507044557 47 10 0.0 0.0 0.00 0.08 0.07 74 1017.8